Lid_Strength_Index
1 1 1 1 1 1 1 1 2 1 0 3 0 1 1 1 0 1 1 1 1 1 1 1 1 1 1 1 1 1 2 2 4 3 2 1 1 2 2 1 0 2 2
2 2 1 1 1 1 1 1 2 4 3 1 0 3 2 1 1 1 1 1 2 1 1 2 2 0 2 1 1 2 2 1 3 4 2 2 1 2 1 1 -0 1 2
2 3 1 1 1 1 1 1 1 2 3 1 1 1 1 1 1 1 1 1 1 1 1 3 1 1 2 2 1 2 2 1 2 3 3 2 1 1 1 1 1 2 1
2 2 2 2 1 1 1 1 1 1 1 1 1 1 1 1 1 1 1 1 1 1 1 2 1 1 1 2 2 2 2 2 2 3 3 3 2 1 1 2 2 3 3
2 2 2 2 2 1 1 1 1 1 1 1 1 1 1 1 0 1 1 1 1 1 1 1 1 0 0 0 1 2 2 2 2 3 3 3 3 3 3 2 2 1 3
2 2 1 3 3 3 1 1 1 1 1 1 1 1 1 1 2 2 1 1 1 1 1 1 1 0 1 0 2 2 1 2 3 3 3 3 3 3 2 2 2 3 4
2 2 2 2 2 3 3 3 1 1 1 1 1 1 1 1 3 3 3 2 1 1 1 1 1 0 1 2 3 3 3 3 2 2 3 3 3 3 3 3 3 3 3
2 2 2 3 2 1 1 2 2 1 1 1 1 1 1 1 4 4 3 2 1 1 1 1 1 1 2 1 3 2 5 7 5 2 4 5 5 5 3 2 2 2 3
3 2 2 2 2 2 2 2 2 2 2 2 1 1 1 1 5 5 5 3 1 2 1 1 1 1 4 4 2 3 7 7 6 6 6 5 5 4 4 3 4 3 3
3 2 2 2 2 2 2 2 2 1 2 2 2 1 3 2 5 7 6 2 2 2 2 5 6 3 6 6 3 4 6 7 6 6 5 5 6 5 4 4 5 5 4
2 2 2 2 2 1 2 2 2 2 2 2 2 2 2 2 2 8 7 2 1 2 3 4 7 8 9 8 5 3 5 6 4 4 6 5 5 5 5 4 5 5 7
2 2 2 2 2 2 2 2 2 2 3 3 3 2 2 2 6 7 9 7 5 2 3 6 7 8 9 9 7 7 7 5 4 5 6 6 6 6 5 5 5 5 5
3 2 2 2 2 3 4 4 3 2 3 3 3 3 3 4 5 9 9 8 7 4 5 7 9 10 10 8 7 7 5 4 4 5 6 6 6 5 5 5 4 5 5
3 3 3 3 3 4 5 6 4 4 3 3 3 3 3 4 5 6 6 6 8 7 8 7 7 7 7 6 5 5 4 4 5 6 6 6 6 6 6 5 4 4 5
3 3 3 3 3 8 11 11 10 8 9 5 3 2 3 4 5 7 8 6 6 7 7 6 6 6 6 5 4 4 4 4 5 6 5 5 6 6 7 7 7 6 4
4 3 2 2 3 4 7 10 12 13 13 13 13 9 8 10 13 14 14 12 11 11 7 7 7 7 6 7 7 7 6 6 6 6 6 7 9 9 8 7 5 3 4
3 3 3 4 3 3 5 7 7 9 11 13 14 12 11 12 13 14 14 13 12 8 7 7 7 7 7 7 7 7 8 6 7 8 9 8 8 6 6 6 5 5 5
2 5 2 3 4 5 6 6 6 8 9 9 12 12 14 13 14 13 12 9 7 7 7 8 8 7 7 7 7 8 8 8 8 9 7 5 5 6 7 8 8 7 6
2 2 2 3 4 5 6 6 7 7 8 8 8 9 11 13 12 11 9 5 6 6 6 7 6 7 7 7 8 7 7 8 7 6 6 6 6 7 7 7 8 7 6
2 3 3 3 5 5 5 5 5 5 6 6 6 6 5 6 6 6 6 6 6 7 6 7 7 6 7 6 7 6 6 5 6 6 6 6 5 5 6 6 7 7 6
3 2 3 3 4 4 4 4 4 5 5 5 5 5 8 6 6 6 6 6 6 6 6 6 6 6 6 4 4 5 5 5 4 5 5 6 5 6 6 6 6 6 7
2 2 2 2 3 4 3 3 3 3 4 5 6 7 9 5 6 6 6 6 6 6 6 5 4 3 3 4 4 4 4 4 4 4 5 5 6 5 5 6 6 6 7
2 2 2 2 2 3 3 2 2 3 3 5 5 5 6 7 6 5 4 4 5 4 3 2 3 3 2 2 2 2 3 4 4 3 4 4 5 5 6 6 6 8 8
3 3 3 4 4 3 3 4 4 5 3 3 4 5 5 5 5 5 4 4 2 2 2 3 2 1 2 2 2 2 2 3 4 4 4 4 6 6 6 6 6 7 8
3 3 4 4 4 5 4 4 5 5 5 5 5 5 5 5 5 3 1 1 2 3 2 0 -0 0 0 1 2 1 6 8 4 6 4 4 5 5 6 6 6 6 7
4 4 4 5 4 5 5 4 4 5 5 5 6 5 5 6 5 3 2 3 1 0 0 1 1 1 1 0 1 7 11 10 6 7 4 5 5 5 6 7 7 6 5